| time (UTC) | temp F | wind direction | speed knots | gust knots | rain 1hr in | rain 24hr in | rain mn in | humidity % | barometer mb |
| 20260504081522 | 48 | 222 | 0.0 | 1.7 | 0.00 | 0.00 | 0.00 | 69 | 1015.7 |
| 20260504050009 | 48 | 222 | 0.0 | 0.0 | 0.00 | 0.00 | 0.00 | 71 | 1016.0 |
| 20260504044509 | 48 | 222 | 0.0 | 0.0 | 0.00 | 0.00 | 0.00 | 71 | 1016.0 |
| 20260504043006 | 48 | 222 | 0.0 | 0.0 | 0.00 | 0.00 | 0.00 | 71 | 1015.8 |
| 20260504041503 | 48 | 222 | 0.0 | 0.0 | 0.00 | 0.00 | 0.00 | 69 | 1015.7 |
| 20260504040006 | 48 | 222 | 0.0 | 0.0 | 0.00 | 0.00 | 0.00 | 68 | 1015.7 |
| 20260504034617 | 48 | 222 | 0.0 | 0.0 | 0.00 | 0.00 | 0.00 | 68 | 1015.6 |
| 20260504033105 | 47 | 222 | 0.0 | 0.0 | 0.00 | 0.00 | 0.00 | 70 | 1015.6 |
| 20260504031605 | 46 | 222 | 0.0 | 0.0 | 0.00 | 0.00 | 0.00 | 71 | 1015.5 |
| 20260504030100 | 45 | 222 | 0.0 | 0.0 | 0.00 | 0.00 | 0.00 | 71 | 1015.7 |
| 20260504024559 | 45 | 222 | 0.0 | 0.0 | 0.00 | 0.00 | 0.00 | 69 | 1015.6 |
| 20260504023100 | 46 | 222 | 0.0 | 0.0 | 0.00 | 0.00 | 0.00 | 68 | 1015.5 |
| 20260504021601 | 46 | 222 | 0.0 | 0.0 | 0.00 | 0.00 | 0.00 | 66 | 1015.5 |
| 20260504020112 | 47 | 222 | 0.0 | 0.9 | 0.00 | 0.00 | 0.00 | 64 | 1015.4 |
| 20260504014602 | 48 | 222 | 0.0 | 0.9 | 0.00 | 0.00 | 0.00 | 62 | 1015.2 |
| 20260504013105 | 48 | 222 | 0.0 | 0.9 | 0.00 | 0.00 | 0.00 | 60 | 1015.2 |
| 20260504011555 | 49 | 222 | 0.0 | 0.9 | 0.00 | 0.00 | 0.00 | 59 | 1015.2 |
| 20260504010055 | 50 | 222 | 0.0 | 0.0 | 0.00 | 0.00 | 0.00 | 56 | 1015.1 |
| 20260504004557 | 51 | 222 | 0.0 | 0.9 | 0.00 | 0.00 | 0.00 | 53 | 1015.0 |
| 20260504003057 | 52 | 222 | 0.0 | 0.0 | 0.00 | 0.00 | 0.00 | 50 | 1014.9 |
| 20260504001558 | 54 | 222 | 0.0 | 0.0 | 0.00 | 0.00 | 0.00 | 46 | 1014.9 |
| 20260504000058 | 56 | 222 | 0.0 | 0.0 | 0.00 | 0.00 | 0.00 | 42 | 1014.7 |
| 20260503234552 | 58 | 222 | 0.0 | 2.6 | 0.00 | 0.00 | 0.00 | 40 | 1014.6 |
| 20260503233052 | 60 | 222 | 0.0 | 0.9 | 0.00 | 0.00 | 0.00 | 35 | 1014.5 |
| 20260503231551 | 62 | 222 | 0.0 | 0.9 | 0.00 | 0.00 | 0.00 | 32 | 1014.3 |
| 20260503230106 | 66 | 222 | 0.9 | 4.3 | 0.00 | 0.00 | 0.00 | 28 | 1014.3 |
| 20260503224557 | 67 | 222 | 0.0 | 2.6 | 0.00 | 0.00 | 0.00 | 27 | 1014.3 |
| 20260503223050 | 68 | 222 | 0.9 | 4.3 | 0.00 | 0.00 | 0.00 | 27 | 1014.4 |
| 20260503221550 | 67 | 222 | 0.0 | 2.6 | 0.00 | 0.00 | 0.00 | 28 | 1014.5 |
| 20260503220049 | 67 | 222 | 0.0 | 4.3 | 0.00 | 0.00 | 0.00 | 25 | 1014.7 |
| 20260503214549 | 67 | 222 | 0.9 | 4.3 | 0.00 | 0.00 | 0.00 | 26 | 1014.6 |
| 20260503213045 | 67 | 222 | 0.9 | 6.1 | 0.00 | 0.00 | 0.00 | 26 | 1014.6 |
| 20260503211603 | 67 | 222 | 0.9 | 5.2 | 0.00 | 0.00 | 0.00 | 27 | 1014.7 |
| 20260503210043 | 66 | 222 | 0.0 | 4.3 | 0.00 | 0.00 | 0.00 | 28 | 1014.8 |
| 20260503204540 | 66 | 222 | 0.9 | 6.1 | 0.00 | 0.00 | 0.00 | 27 | 1014.9 |
| 20260503203044 | 66 | 222 | 3.5 | 7.8 | 0.00 | 0.00 | 0.00 | 29 | 1015.1 |
| 20260503201534 | 65 | 224 | 1.7 | 5.2 | 0.00 | 0.00 | 0.00 | 28 | 1015.2 |
| 20260503200041 | 64 | 224 | 1.7 | 9.6 | 0.00 | 0.00 | 0.00 | 29 | 1015.4 |
| 20260503194530 | 64 | 225 | 2.6 | 11.3 | 0.00 | 0.00 | 0.00 | 29 | 1015.6 |
| 20260503193033 | 63 | 228 | 3.5 | 7.8 | 0.00 | 0.00 | 0.00 | 29 | 1015.8 |
| 20260503191528 | 63 | 229 | 2.6 | 7.0 | 0.00 | 0.00 | 0.00 | 29 | 1016.2 |
| 20260503190032 | 64 | 229 | 2.6 | 7.8 | 0.00 | 0.00 | 0.00 | 30 | 1016.4 |
| 20260503184530 | 63 | 229 | 1.7 | 10.4 | 0.00 | 0.00 | 0.00 | 31 | 1016.7 |
| 20260503183022 | 63 | 229 | 1.7 | 7.8 | 0.00 | 0.00 | 0.00 | 30 | 1016.8 |
| 20260503181520 | 62 | 230 | 1.7 | 7.0 | 0.00 | 0.00 | 0.00 | 33 | 1017.1 |
| 20260503180035 | 62 | 230 | 0.0 | 8.7 | 0.00 | 0.00 | 0.00 | 32 | 1017.1 |
| 20260503174521 | 61 | 229 | 0.9 | 7.8 | 0.00 | 0.00 | 0.00 | 33 | 1017.2 |
| 20260503173020 | 61 | 229 | 3.5 | 9.6 | 0.00 | 0.00 | 0.00 | 33 | 1017.3 |
| 20260503171515 | 60 | 231 | 1.7 | 9.6 | 0.00 | 0.00 | 0.00 | 32 | 1017.4 |